^^
Meteo Knjazevac Station Historical Data
Daily Summary for February 7, 2022 Units:  English    Metric   Both
Daily Weekly Monthly Yearly Custom
  High: Low: Average:
Temperature: 43.5 °F 38.8 °F 40.4 °F
Dew Point: 43.3 °F 38.6 °F 40.2 °F
Humidity: 99% 99% 99%
Wind Speed: 6.3mph 0mph 3mph
Wind Gust: 8mph - -
Wind- - ENE
Pressure: 30.09 in 29.99 in -
Precipitation: 0.04 in    
Historical Graphs
 
 
Tabular Data for February 7, 2022
Time Temperature Dew Point Pressure Wind Wind Speed Wind Gust Humidity Rainfall Rate (Hourly) solar Conditions
00:04 38.8 °F 38.6 °F 30.09 in WNW 0.7 mph 2 mph 99% 0.00 in 0 W/m2
00:09 38.8 °F 38.6 °F 30.09 in WNW 0.1 mph 2 mph 99% 0.00 in 0 W/m2
00:14 38.8 °F 38.6 °F 30.09 in NW 1.5 mph 1 mph 99% 0.00 in 0 W/m2
00:19 38.8 °F 38.6 °F 30.09 in NNW 2 mph 2 mph 99% 0.00 in 0 W/m2
00:24 38.8 °F 38.6 °F 30.09 in NNW 2.2 mph 2 mph 99% 0.00 in 0 W/m2
00:29 38.8 °F 38.6 °F 30.09 in NNW 2.2 mph 2 mph 99% 0.00 in 0 W/m2
00:34 38.8 °F 38.6 °F 30.09 in NW 1 mph 2 mph 99% 0.00 in 0 W/m2
00:39 38.9 °F 38.7 °F 30.09 in NW 0.8 mph 1 mph 99% 0.00 in 0 W/m2
00:44 38.9 °F 38.7 °F 30.09 in North 1.5 mph 2 mph 99% 0.00 in 0 W/m2
00:49 39 °F 38.8 °F 30.09 in NNE 1.3 mph 2 mph 99% 0.00 in 0 W/m2
00:54 39 °F 38.8 °F 30.09 in ENE 1.4 mph 2 mph 99% 0.00 in 0 W/m2
00:59 39 °F 38.8 °F 30.09 in ENE 0.7 mph 2 mph 99% 0.00 in 0 W/m2
01:04 39 °F 38.8 °F 30.09 in Calm   2 mph 99% 0.00 in 0 W/m2
01:09 39 °F 38.8 °F 30.09 in ENE 0.4 mph 0.7 mph 99% 0.00 in 0 W/m2
01:14 39.2 °F 38.9 °F 30.09 in NE 1.2 mph 2 mph 99% 0.00 in 0 W/m2
01:19 39.2 °F 38.9 °F 30.09 in NNE 1.5 mph 2 mph 99% 0.00 in 0 W/m2
01:24 39.2 °F 38.9 °F 30.09 in North 0.6 mph 2 mph 99% 0.00 in 0 W/m2
01:29 39.2 °F 38.9 °F 30.09 in North 2.3 mph 2.7 mph 99% 0.00 in 0 W/m2
01:34 39.2 °F 38.9 °F 30.09 in NNE 2.6 mph 3 mph 99% 0.00 in 0 W/m2
01:39 39.2 °F 38.9 °F 30.09 in NE 1.2 mph 3 mph 99% 0.00 in 0 W/m2
01:44 39.2 °F 38.9 °F 30.09 in North 1.2 mph 1 mph 99% 0.00 in 0 W/m2
01:49 39.2 °F 38.9 °F 30.09 in NNW 0.2 mph 2 mph 99% 0.00 in 0 W/m2
01:54 39.2 °F 38.9 °F 30.09 in North 0.2 mph 1 mph 99% 0.00 in 0 W/m2
01:59 39.2 °F 38.9 °F 30.09 in North 1.6 mph 1.6 mph 99% 0.00 in 0 W/m2
02:04 39.2 °F 38.9 °F 30.09 in NE 2 mph 2 mph 99% 0.00 in 0 W/m2
02:09 39.2 °F 38.9 °F 30.08 in East 1.9 mph 2 mph 99% 0.00 in 0 W/m2
02:14 39.2 °F 38.9 °F 30.08 in ESE 1.8 mph 2 mph 99% 0.00 in 0 W/m2
02:19 39.2 °F 38.9 °F 30.08 in East 1.4 mph 2 mph 99% 0.00 in 0 W/m2
02:24 39.2 °F 38.9 °F 30.08 in East 1.1 mph 2 mph 99% 0.00 in 0 W/m2
02:29 39.2 °F 38.9 °F 30.08 in East 0.4 mph 1 mph 99% 0.00 in 0 W/m2
02:34 39.2 °F 38.9 °F 30.08 in ESE 0.3 mph 1 mph 99% 0.00 in 0 W/m2
02:39 39.2 °F 38.9 °F 30.07 in NNE 0.7 mph 1 mph 99% 0.00 in 0 W/m2
02:44 39.2 °F 38.9 °F 30.07 in NW 0.5 mph 1 mph 99% 0.00 in 0 W/m2
02:49 39.2 °F 38.9 °F 30.07 in WNW 1.6 mph 1.1 mph 99% 0.00 in 0 W/m2
02:54 39.2 °F 38.9 °F 30.07 in WNW 1 mph 2 mph 99% 0.00 in 0 W/m2
02:59 39.2 °F 38.9 °F 30.07 in WNW 1.3 mph 2 mph 99% 0.00 in 0 W/m2
03:04 39.2 °F 38.9 °F 30.07 in NW 1.3 mph 2 mph 99% 0.00 in 0 W/m2
03:09 39.2 °F 38.9 °F 30.07 in NW 2 mph 2 mph 99% 0.00 in 0 W/m2
03:14 39.2 °F 38.9 °F 30.06 in NW 1.4 mph 2 mph 99% 0.00 in 0 W/m2
03:19 39.2 °F 38.9 °F 30.06 in NNW 1 mph 2 mph 99% 0.00 in 0 W/m2
03:24 39.2 °F 38.9 °F 30.06 in North 0.3 mph 1 mph 99% 0.00 in 0 W/m2
03:29 39.2 °F 38.9 °F 30.06 in North 0.2 mph 1 mph 99% 0.00 in 0 W/m2
03:34 39.2 °F 38.9 °F 30.06 in North 0.1 mph 0.2 mph 99% 0.00 in 0 W/m2
03:39 39.2 °F 38.9 °F 30.06 in NNW 1.8 mph 1.6 mph 99% 0.00 in 0 W/m2
03:44 39.2 °F 38.9 °F 30.06 in NW 0.3 mph 2 mph 99% 0.00 in 0 W/m2
03:49 39.2 °F 38.9 °F 30.06 in North 0.2 mph   99% 0.00 in 0 W/m2
03:54 39.3 °F 39 °F 30.06 in North 1.8 mph 1.8 mph 99% 0.00 in 0 W/m2
03:59 39.4 °F 39.1 °F 30.06 in North 1.8 mph 2 mph 99% 0.00 in 0 W/m2
04:04 39.4 °F 39.1 °F 30.06 in North 2.5 mph 2 mph 99% 0.00 in 0 W/m2
04:09 39.4 °F 39.1 °F 30.06 in NNE 3 mph 3 mph 99% 0.00 in 0 W/m2
04:14 39.4 °F 39.1 °F 30.05 in NNE 3.1 mph 3 mph 99% 0.00 in 0 W/m2
04:19 39.4 °F 39.1 °F 30.05 in NNE 1.2 mph 3 mph 99% 0.00 in 0 W/m2
04:24 39.4 °F 39.1 °F 30.05 in North 0.3 mph 2 mph 99% 0.00 in 0 W/m2
04:29 39.3 °F 39 °F 30.05 in North 1.5 mph 1.6 mph 99% 0.00 in 0 W/m2
04:34 39.3 °F 39 °F 30.05 in North 2.1 mph 2 mph 99% 0.00 in 0 W/m2
04:39 39.4 °F 39.1 °F 30.06 in North 2 mph 2 mph 99% 0.00 in 0 W/m2
04:44 39.4 °F 39.1 °F 30.06 in North 1.6 mph 2 mph 99% 0.00 in 0 W/m2
04:49 39.4 °F 39.1 °F 30.05 in North 2.2 mph 2 mph 99% 0.00 in 0 W/m2
04:54 39.4 °F 39.1 °F 30.06 in North 1.9 mph 2 mph 99% 0.00 in 0 W/m2
04:59 39.4 °F 39.1 °F 30.05 in NNE 2.6 mph 2 mph 99% 0.00 in 0 W/m2
05:04 39.4 °F 39.1 °F 30.05 in NE 3 mph 3.1 mph 99% 0.00 in 0 W/m2
05:09 39.4 °F 39.1 °F 30.05 in NE 1.7 mph 4 mph 99% 0.00 in 0 W/m2
05:14 39.4 °F 39.1 °F 30.05 in Calm   2 mph 99% 0.00 in 0 W/m2
05:19 39.3 °F 39 °F 30.05 in North 1.2 mph 1.3 mph 99% 0.00 in 0 W/m2
05:24 39.2 °F 38.9 °F 30.05 in NNE 1.2 mph 2 mph 99% 0.00 in 0 W/m2
05:29 39.2 °F 38.9 °F 30.05 in NNE 2.1 mph 2 mph 99% 0.00 in 0 W/m2
05:34 39.3 °F 39 °F 30.05 in NNE 2.6 mph 3 mph 99% 0.00 in 0 W/m2
05:39 39.3 °F 39 °F 30.05 in NNE 4 mph 3.4 mph 99% 0.00 in 0 W/m2
05:44 39.2 °F 38.9 °F 30.05 in NNE 3.7 mph 5 mph 99% 0.00 in 0 W/m2
05:49 39.2 °F 38.9 °F 30.05 in NNE 3.5 mph 4 mph 99% 0.00 in 0 W/m2
05:54 39.2 °F 38.9 °F 30.05 in NNE 3.4 mph 4 mph 99% 0.00 in 0 W/m2
05:59 39.1 °F 38.9 °F 30.05 in NNE 3.8 mph 4 mph 99% 0.00 in 0 W/m2
06:04 39.1 °F 38.9 °F 30.05 in NNE 3.4 mph 5 mph 99% 0.01 in 0 W/m2
06:09 39 °F 38.8 °F 30.05 in NNE 4.2 mph 5 mph 99% 0.01 in 0 W/m2
06:14 39 °F 38.8 °F 30.05 in NNE 3.7 mph 5 mph 99% 0.01 in 0 W/m2
06:19 39 °F 38.8 °F 30.05 in NNE 3.6 mph 5 mph 99% 0.01 in 0 W/m2
06:24 39 °F 38.8 °F 30.05 in NNE 3.5 mph 4 mph 99% 0.01 in 0 W/m2
06:29 39 °F 38.8 °F 30.05 in NNE 4.4 mph 4 mph 99% 0.01 in 0 W/m2
06:34 39 °F 38.8 °F 30.05 in NNE 4 mph 5 mph 99% 0.01 in 0 W/m2
06:39 39 °F 38.8 °F 30.05 in NNE 4.1 mph 5 mph 99% 0.01 in 0 W/m2
06:44 39 °F 38.8 °F 30.05 in NNE 3.5 mph 5 mph 99% 0.01 in 0 W/m2
06:49 39 °F 38.8 °F 30.05 in NNE 3.1 mph 4 mph 99% 0.01 in 1 W/m2
06:54 39 °F 38.8 °F 30.05 in NNE 2.4 mph 3 mph 99% 0.01 in 1 W/m2
06:59 38.9 °F 38.7 °F 30.05 in North 0.3 mph 2 mph 99% 0.01 in 2 W/m2
07:04 38.8 °F 38.6 °F 30.05 in North 1.3 mph 0.9 mph 99% 0.01 in 4 W/m2
07:09 38.8 °F 38.6 °F 30.05 in NNW 0.2 mph 2 mph 99% 0.01 in 4 W/m2
07:14 38.8 °F 38.6 °F 30.05 in Calm     99% 0.00 in 6 W/m2
07:19 38.8 °F 38.6 °F 30.05 in North 1.4 mph 0.9 mph 99% 0.00 in 10 W/m2
07:24 39 °F 38.8 °F 30.04 in NNE 2.2 mph 2 mph 99% 0.00 in 10 W/m2
07:29 39 °F 38.8 °F 30.04 in NNE 3.2 mph 3 mph 99% 0.00 in 11 W/m2
07:34 39 °F 38.8 °F 30.04 in NNE 1.7 mph 4 mph 99% 0.00 in 11 W/m2
07:39 39 °F 38.8 °F 30.04 in North 1.9 mph 2.2 mph 99% 0.00 in 11 W/m2
07:44 39 °F 38.8 °F 30.04 in North 2.7 mph 3 mph 99% 0.00 in 14 W/m2
07:49 39 °F 38.8 °F 30.04 in NNE 2.4 mph 3 mph 99% 0.00 in 18 W/m2
07:54 39.1 °F 38.8 °F 30.04 in NNE 2.2 mph 2 mph 99% 0.00 in 19 W/m2
07:59 39.1 °F 38.8 °F 30.04 in North 2.3 mph 2 mph 99% 0.00 in 21 W/m2
08:04 39.1 °F 38.9 °F 30.04 in North 2 mph 3 mph 99% 0.00 in 27 W/m2
08:09 39 °F 38.8 °F 30.04 in Calm   2 mph 99% 0.00 in 34 W/m2
08:14 39.1 °F 38.9 °F 30.04 in North 1.5 mph 0.9 mph 99% 0.00 in 36 W/m2
08:19 39.2 °F 38.9 °F 30.04 in NW 2 mph 2 mph 99% 0.00 in 38 W/m2
08:24 39.2 °F 38.9 °F 30.04 in West 2.2 mph 2 mph 99% 0.00 in 66 W/m2
08:29 39.3 °F 39 °F 30.04 in West 1.9 mph 2 mph 99% 0.00 in 99 W/m2
08:34 39.4 °F 39.1 °F 30.04 in WNW 0.3 mph 2 mph 99% 0.00 in 75 W/m2
08:39 39.4 °F 39.1 °F 30.04 in WNW 1.8 mph 2 mph 99% 0.00 in 78 W/m2
08:44 39.6 °F 39.3 °F 30.04 in NNW 2.7 mph 3 mph 99% 0.00 in 78 W/m2
08:49 39.7 °F 39.5 °F 30.04 in North 2.5 mph 3 mph 99% 0.00 in 72 W/m2
08:54 39.9 °F 39.7 °F 30.04 in North 3.6 mph 2.7 mph 99% 0.00 in 72 W/m2
08:59 39.9 °F 39.7 °F 30.04 in North 3.9 mph 5 mph 99% 0.00 in 72 W/m2
09:04 40 °F 39.7 °F 30.04 in NNE 4.4 mph 6 mph 99% 0.00 in 67 W/m2
09:09 40.1 °F 39.8 °F 30.04 in NNE 4.6 mph 6 mph 99% 0.00 in 72 W/m2
09:14 40.1 °F 39.8 °F 30.04 in NNE 4.1 mph 6 mph 99% 0.00 in 82 W/m2
09:19 40.1 °F 39.8 °F 30.04 in NNE 3.8 mph 5 mph 99% 0.00 in 123 W/m2
09:24 40.2 °F 39.9 °F 30.04 in NNE 2.9 mph 5 mph 99% 0.00 in 144 W/m2
09:29 40.4 °F 40.1 °F 30.04 in North 2.6 mph 3 mph 99% 0.00 in 199 W/m2
09:34 40.6 °F 40.4 °F 30.04 in NNE 2.8 mph 4 mph 99% 0.00 in 197 W/m2
09:39 40.8 °F 40.6 °F 30.04 in NNE 2.1 mph 4 mph 99% 0.00 in 167 W/m2
09:44 41 °F 40.7 °F 30.04 in NNE 4 mph 4 mph 99% 0.00 in 178 W/m2
09:49 41.1 °F 40.8 °F 30.04 in NNE 4.1 mph 5 mph 99% 0.00 in 141 W/m2
09:54 41.2 °F 40.9 °F 30.04 in NNE 3.8 mph 5 mph 99% 0.00 in 124 W/m2
09:59 41.2 °F 40.9 °F 30.04 in NNE 4.7 mph 5 mph 99% 0.00 in 134 W/m2
10:04 41.3 °F 41 °F 30.04 in NNE 4.2 mph 6 mph 99% 0.00 in 109 W/m2
10:09 41.3 °F 41 °F 30.04 in NNE 3.3 mph 5 mph 99% 0.00 in 86 W/m2
10:14 41.2 °F 40.9 °F 30.04 in NNE 5.1 mph 4 mph 99% 0.00 in 86 W/m2
10:19 41.2 °F 40.9 °F 30.04 in North 3.6 mph 6 mph 99% 0.00 in 87 W/m2
10:24 41.2 °F 40.9 °F 30.04 in North 4.5 mph 5 mph 99% 0.00 in 99 W/m2
10:29 41.2 °F 40.9 °F 30.03 in NNE 4.2 mph 5 mph 99% 0.00 in 99 W/m2
10:34 41.2 °F 40.9 °F 30.03 in NNE 3.8 mph 5 mph 99% 0.00 in 75 W/m2
10:39 41.2 °F 40.9 °F 30.03 in NNE 3.4 mph 5 mph 99% 0.00 in 78 W/m2
10:44 41.2 °F 40.9 °F 30.03 in NNE 3.2 mph 4 mph 99% 0.00 in 87 W/m2
10:49 41.2 °F 40.9 °F 30.03 in NNE 3 mph 4 mph 99% 0.00 in 83 W/m2
10:54 41.2 °F 40.9 °F 30.03 in North 3.4 mph 4 mph 99% 0.00 in 64 W/m2
10:59 41.3 °F 41 °F 30.03 in North 3.4 mph 3 mph 99% 0.00 in 85 W/m2
11:04 41.3 °F 41 °F 30.03 in NNE 2.3 mph 4 mph 99% 0.00 in 150 W/m2
11:09 41.3 °F 41 °F 30.03 in North 2.9 mph 2.5 mph 99% 0.00 in 169 W/m2
11:14 41.5 °F 41.2 °F 30.02 in NNW 1.6 mph 4 mph 99% 0.00 in 182 W/m2
11:19 41.5 °F 41.3 °F 30.02 in NNE 3.7 mph 3 mph 99% 0.00 in 181 W/m2
11:24 41.4 °F 41.1 °F 30.02 in NE 2.7 mph 5 mph 99% 0.00 in 128 W/m2
11:29 41.5 °F 41.2 °F 30.02 in NE 1.6 mph 3 mph 99% 0.00 in 202 W/m2
11:34 41.6 °F 41.4 °F 30.01 in NNW 1.5 mph 2 mph 99% 0.00 in 206 W/m2
11:39 41.9 °F 41.6 °F 30.01 in North 2.9 mph 2.5 mph 99% 0.00 in 191 W/m2
11:44 42 °F 41.7 °F 30.01 in NNE 2.7 mph 4 mph 99% 0.00 in 161 W/m2
11:49 42.1 °F 41.8 °F 30.01 in NNE 2.8 mph 3 mph 99% 0.00 in 147 W/m2
11:54 42 °F 41.7 °F 30.01 in NNE 3.1 mph 3 mph 99% 0.00 in 143 W/m2
11:59 41.9 °F 41.6 °F 30.01 in NNE 2.6 mph 4 mph 99% 0.00 in 150 W/m2
12:04 42 °F 41.7 °F 30.01 in ENE 2.4 mph 4 mph 99% 0.00 in 167 W/m2
12:09 42.2 °F 41.9 °F 30.01 in East 1.1 mph 3 mph 99% 0.00 in 193 W/m2
12:14 42.4 °F 42.1 °F 30.01 in NE 2.3 mph 1.8 mph 99% 0.00 in 140 W/m2
12:19 42.4 °F 42.1 °F 30.01 in SE 2.2 mph 3 mph 99% 0.00 in 95 W/m2
12:24 42.3 °F 42 °F 30.00 in East 2.3 mph 2 mph 99% 0.00 in 82 W/m2
12:29 42.4 °F 42.2 °F 30.00 in NNE 2.2 mph 3 mph 99% 0.00 in 168 W/m2
12:34 42.6 °F 42.3 °F 30.00 in North 2 mph 2 mph 99% 0.00 in 222 W/m2
12:39 42.9 °F 42.6 °F 30.00 in NNE 3.8 mph 2.9 mph 99% 0.00 in 253 W/m2
12:44 43.2 °F 42.9 °F 30.00 in NNE 4.3 mph 5 mph 99% 0.00 in 200 W/m2
12:49 43.2 °F 43 °F 30.00 in North 3.5 mph 5 mph 99% 0.00 in 125 W/m2
12:54 43.2 °F 42.9 °F 30.00 in North 2.6 mph 4 mph 99% 0.02 in 75 W/m2
12:59 43.2 °F 42.9 °F 30.00 in North 2.4 mph 3 mph 99% 0.02 in 81 W/m2
13:04 43.2 °F 42.9 °F 30.00 in North 3.4 mph 3 mph 99% 0.02 in 93 W/m2
13:09 43.2 °F 42.9 °F 30.00 in NNE 2 mph 5 mph 99% 0.02 in 105 W/m2
13:14 43.3 °F 43 °F 30.00 in North 2.7 mph 3.1 mph 99% 0.02 in 106 W/m2
13:19 43.3 °F 43.1 °F 30.00 in North 4 mph 5 mph 99% 0.02 in 85 W/m2
13:24 43.3 °F 43.1 °F 30.00 in North 4.3 mph 5 mph 99% 0.02 in 88 W/m2
13:29 43.5 °F 43.3 °F 30.00 in NNE 5 mph 5 mph 99% 0.02 in 88 W/m2
13:34 43.5 °F 43.3 °F 30.00 in NNE 5.8 mph 7 mph 99% 0.02 in 88 W/m2
13:39 43.5 °F 43.3 °F 30.00 in NNE 5.1 mph 7 mph 99% 0.02 in 73 W/m2
13:44 43.3 °F 43.1 °F 30.00 in NNE 5.7 mph 7 mph 99% 0.02 in 76 W/m2
13:49 43.3 °F 43.1 °F 30.00 in NNE 4.8 mph 7 mph 99% 0.02 in 70 W/m2
13:54 43.3 °F 43.1 °F 29.99 in NNE 5 mph 6 mph 99% 0.02 in 63 W/m2
13:59 43.2 °F 42.9 °F 30.00 in NNE 4.8 mph 6 mph 99% 0.00 in 74 W/m2
14:04 43.1 °F 42.8 °F 30.00 in North 4.4 mph 6 mph 99% 0.00 in 74 W/m2
14:09 43 °F 42.7 °F 30.00 in NNE 5.7 mph 5 mph 99% 0.00 in 67 W/m2
14:14 42.9 °F 42.6 °F 29.99 in NNE 6.3 mph 7 mph 99% 0.00 in 69 W/m2
14:19 42.8 °F 42.5 °F 30.00 in NNE 4.3 mph 7 mph 99% 0.00 in 83 W/m2
14:24 42.8 °F 42.5 °F 30.00 in North 5.7 mph 5 mph 99% 0.00 in 85 W/m2
14:29 42.8 °F 42.5 °F 30.00 in North 4.6 mph 8 mph 99% 0.00 in 69 W/m2
14:34 42.8 °F 42.5 °F 30.00 in North 3.8 mph 6 mph 99% 0.00 in 46 W/m2
14:39 42.7 °F 42.5 °F 30.00 in North 5.2 mph 5 mph 99% 0.00 in 43 W/m2
14:44 42.6 °F 42.4 °F 30.00 in North 5.8 mph 8 mph 99% 0.00 in 49 W/m2
14:49 42.5 °F 42.3 °F 30.00 in NNE 5.5 mph 7 mph 99% 0.00 in 43 W/m2
14:54 42.4 °F 42.2 °F 30.00 in North 4 mph 7 mph 99% 0.00 in 32 W/m2
14:59 42.4 °F 42.2 °F 29.99 in North 4.5 mph 5 mph 99% 0.00 in 24 W/m2
15:04 42.4 °F 42.1 °F 29.99 in North 4.1 mph 6 mph 99% 0.00 in 17 W/m2
15:09 42.3 °F 42 °F 29.99 in North 5.2 mph 5 mph 99% 0.00 in 15 W/m2
15:14 42.2 °F 41.9 °F 29.99 in North 4.2 mph 7 mph 99% 0.00 in 15 W/m2
15:19 42.1 °F 41.8 °F 29.99 in NNE 4.3 mph 5 mph 99% 0.00 in 13 W/m2
15:24 42 °F 41.7 °F 30.00 in North 4.9 mph 5 mph 99% 0.00 in 9 W/m2
15:29 41.9 °F 41.6 °F 30.00 in North 4.6 mph 6 mph 99% 0.00 in 7 W/m2
15:34 41.9 °F 41.6 °F 30.00 in North 5.6 mph 5 mph 99% 0.00 in 6 W/m2
15:39 41.9 °F 41.6 °F 30.00 in North 5.5 mph 7 mph 99% 0.00 in 4 W/m2
15:44 41.8 °F 41.5 °F 30.00 in NNE 5.2 mph 7 mph 99% 0.00 in 3 W/m2
15:49 41.7 °F 41.5 °F 30.00 in NNE 4.7 mph 7 mph 99% 0.00 in 2 W/m2
15:54 41.5 °F 41.3 °F 30.00 in NNE 4 mph 6 mph 99% 0.00 in 1 W/m2
15:59 41.5 °F 41.3 °F 30.00 in NNE 3.7 mph 5 mph 99% 0.00 in 0 W/m2
16:04 41.5 °F 41.3 °F 30.00 in NNE 4 mph 5 mph 99% 0.00 in 0 W/m2
16:09 41.5 °F 41.3 °F 30.01 in NNE 4 mph 5 mph 99% 0.00 in 0 W/m2
16:14 41.5 °F 41.3 °F 30.01 in NNE 5.8 mph 5 mph 99% 0.00 in 0 W/m2
16:19 41.4 °F 41.1 °F 30.01 in NNE 4.8 mph 7 mph 99% 0.00 in 0 W/m2
16:24 41.4 °F 41.1 °F 30.01 in NNE 4.6 mph 7 mph 99% 0.00 in 0 W/m2
16:29 41.4 °F 41.1 °F 30.01 in North 5.5 mph 7 mph 99% 0.00 in 0 W/m2
16:34 41.4 °F 41.1 °F 30.01 in NNE 4.9 mph 6 mph 99% 0.00 in 0 W/m2
16:39 41.2 °F 40.9 °F 30.01 in NNE 4.3 mph 6 mph 99% 0.00 in 0 W/m2
16:44 41.2 °F 40.9 °F 30.01 in NNE 5.1 mph 6 mph 99% 0.00 in 0 W/m2
16:49 41.2 °F 40.9 °F 30.01 in NNE 5.1 mph 6 mph 99% 0.00 in 0 W/m2
16:54 41.2 °F 40.9 °F 30.01 in North 5 mph 6 mph 99% 0.00 in 0 W/m2
16:59 41 °F 40.7 °F 30.01 in NNE 5 mph 7 mph 99% 0.00 in 0 W/m2
17:04 41 °F 40.7 °F 30.01 in NNE 4.5 mph 7 mph 99% 0.00 in 0 W/m2
17:09 41 °F 40.7 °F 30.01 in NNE 2.6 mph 6 mph 99% 0.00 in 0 W/m2
17:14 41 °F 40.7 °F 30.01 in North 5.2 mph 4.7 mph 99% 0.00 in 0 W/m2
17:19 40.9 °F 40.7 °F 30.01 in North 4.2 mph 7 mph 99% 0.00 in 0 W/m2
17:24 40.9 °F 40.6 °F 30.01 in North 5.7 mph 5 mph 99% 0.00 in 0 W/m2
17:29 40.8 °F 40.6 °F 30.01 in North 5.7 mph 7 mph 99% 0.00 in 0 W/m2
17:34 40.8 °F 40.6 °F 30.01 in NNE 5 mph 6 mph 99% 0.00 in 0 W/m2
17:39 40.8 °F 40.6 °F 30.01 in NNE 5.1 mph 7 mph 99% 0.00 in 0 W/m2
17:44 40.8 °F 40.6 °F 30.01 in NNE 4.7 mph 5 mph 99% 0.00 in 0 W/m2
17:49 40.8 °F 40.6 °F 30.01 in NNE 5.6 mph 6 mph 99% 0.00 in 0 W/m2
17:54 40.7 °F 40.5 °F 30.01 in NNE 4.6 mph 7 mph 99% 0.00 in 0 W/m2
17:59 40.6 °F 40.4 °F 30.02 in NNE 4.3 mph 5 mph 99% 0.00 in 0 W/m2
18:04 40.6 °F 40.4 °F 30.02 in NNE 3.8 mph 5 mph 99% 0.00 in 0 W/m2
18:09 40.6 °F 40.4 °F 30.01 in NNE 4.4 mph 5 mph 99% 0.00 in 0 W/m2
18:14 40.6 °F 40.4 °F 30.01 in NNE 3.7 mph 5 mph 99% 0.00 in 0 W/m2
18:19 40.6 °F 40.4 °F 30.02 in NNE 4.6 mph 4 mph 99% 0.00 in 0 W/m2
18:24 40.6 °F 40.4 °F 30.02 in NNE 4 mph 6 mph 99% 0.00 in 0 W/m2
18:29 40.6 °F 40.3 °F 30.02 in NNE 3.2 mph 5 mph 99% 0.00 in 0 W/m2
18:34 40.6 °F 40.4 °F 30.02 in North 5 mph 4 mph 99% 0.00 in 0 W/m2
18:39 40.6 °F 40.4 °F 30.02 in North 5.2 mph 6 mph 99% 0.00 in 0 W/m2
18:44 40.6 °F 40.3 °F 30.03 in NNE 5.9 mph 7 mph 99% 0.00 in 0 W/m2
18:49 40.5 °F 40.2 °F 30.03 in North 3.9 mph 7 mph 99% 0.00 in 0 W/m2
18:54 40.5 °F 40.2 °F 30.03 in North 3.4 mph 5 mph 99% 0.00 in 0 W/m2
18:59 40.5 °F 40.2 °F 30.03 in North 5.3 mph 5 mph 99% 0.00 in 0 W/m2
19:04 40.5 °F 40.2 °F 30.03 in North 4.1 mph 7 mph 99% 0.00 in 0 W/m2
19:09 40.4 °F 40.1 °F 30.03 in North 4.6 mph 5 mph 99% 0.00 in 0 W/m2
19:14 40.3 °F 40 °F 30.03 in North 4.1 mph 6 mph 99% 0.00 in 0 W/m2
19:19 40.3 °F 40.1 °F 30.03 in NNE 5.2 mph 6 mph 99% 0.00 in 0 W/m2
19:24 40.3 °F 40.1 °F 30.03 in NNE 5 mph 6 mph 99% 0.00 in 0 W/m2
19:29 40.3 °F 40 °F 30.03 in NNE 3.4 mph 6 mph 99% 0.00 in 0 W/m2
19:34 40.3 °F 40 °F 30.03 in North 3.5 mph 5 mph 99% 0.00 in 0 W/m2
19:39 40.3 °F 40 °F 30.04 in North 3.7 mph 4 mph 99% 0.00 in 0 W/m2
19:44 40.3 °F 40 °F 30.04 in NNE 4 mph 5 mph 99% 0.00 in 0 W/m2
19:49 40.3 °F 40 °F 30.04 in North 4.2 mph 6 mph 99% 0.00 in 0 W/m2
19:54 40.3 °F 40 °F 30.04 in NNE 4.3 mph 6 mph 99% 0.00 in 0 W/m2
19:59 40.3 °F 40 °F 30.04 in NNE 3.1 mph 6 mph 99% 0.00 in 0 W/m2
20:04 40.3 °F 40 °F 30.04 in NNE 3.4 mph 5 mph 99% 0.00 in 0 W/m2
20:09 40.2 °F 40 °F 30.04 in NNE 4.8 mph 4 mph 99% 0.00 in 0 W/m2
20:14 40.3 °F 40 °F 30.04 in NNE 3.6 mph 7 mph 99% 0.00 in 0 W/m2
20:19 40.3 °F 40 °F 30.04 in NNE 4.1 mph 4 mph 99% 0.00 in 0 W/m2
20:24 40.3 °F 40 °F 30.04 in North 4.2 mph 6 mph 99% 0.00 in 0 W/m2
20:29 40.2 °F 39.9 °F 30.04 in North 4.3 mph 5 mph 99% 0.00 in 0 W/m2
20:34 40.1 °F 39.8 °F 30.04 in NNE 4.5 mph 6 mph 99% 0.00 in 0 W/m2
20:39 40.1 °F 39.8 °F 30.04 in NNE 4 mph 6 mph 99% 0.00 in 0 W/m2
20:44 40.2 °F 39.9 °F 30.04 in NNE 5.7 mph 6 mph 99% 0.00 in 0 W/m2
20:49 40.1 °F 39.8 °F 30.04 in NNE 4.4 mph 7 mph 99% 0.00 in 0 W/m2
20:54 40.1 °F 39.8 °F 30.04 in NNE 2.9 mph 5 mph 99% 0.00 in 0 W/m2
20:59 40.1 °F 39.8 °F 30.04 in NNE 4.1 mph 6 mph 99% 0.00 in 0 W/m2
21:04 40.1 °F 39.8 °F 30.04 in North 3.2 mph 5 mph 99% 0.00 in 0 W/m2
21:09 40.1 °F 39.8 °F 30.04 in North 2.1 mph 4 mph 99% 0.00 in 0 W/m2
21:14 40.1 °F 39.8 °F 30.04 in NNE 3 mph 2 mph 99% 0.00 in 0 W/m2
21:19 40.1 °F 39.8 °F 30.04 in NNE 3.5 mph 4 mph 99% 0.00 in 0 W/m2
21:24 40.1 °F 39.8 °F 30.04 in NNE 3 mph 4 mph 99% 0.00 in 0 W/m2
21:29 40.1 °F 39.8 °F 30.04 in NNE 3.7 mph 4 mph 99% 0.00 in 0 W/m2
21:34 40.1 °F 39.8 °F 30.04 in NNE 4.4 mph 5 mph 99% 0.00 in 0 W/m2
21:39 40.1 °F 39.8 °F 30.05 in NNE 3.9 mph 6 mph 99% 0.00 in 0 W/m2
21:44 40.1 °F 39.8 °F 30.05 in NNE 2.5 mph 6 mph 99% 0.00 in 0 W/m2
21:49 40.1 °F 39.8 °F 30.05 in NNE 2.7 mph 4 mph 99% 0.00 in 0 W/m2
21:54 40.1 °F 39.8 °F 30.05 in NNE 1.7 mph 3 mph 99% 0.00 in 0 W/m2
21:59 40.1 °F 39.8 °F 30.05 in NNE 2.2 mph 2 mph 99% 0.00 in 0 W/m2
22:04 40.1 °F 39.8 °F 30.05 in NNE 2.4 mph 3 mph 99% 0.00 in 0 W/m2
22:09 40.1 °F 39.8 °F 30.05 in NNE 2.4 mph 3 mph 99% 0.00 in 0 W/m2
22:14 40.1 °F 39.8 °F 30.05 in NNE 2.5 mph 3 mph 99% 0.00 in 0 W/m2
22:19 40.1 °F 39.8 °F 30.05 in NNE 2.8 mph 3 mph 99% 0.00 in 0 W/m2
22:24 40.1 °F 39.8 °F 30.05 in NNE 2.5 mph 3 mph 99% 0.00 in 0 W/m2
22:29 40.1 °F 39.8 °F 30.05 in NNE 2.2 mph 3 mph 99% 0.00 in 0 W/m2
22:34 40.1 °F 39.8 °F 30.05 in NNE 2.2 mph 2.2 mph 99% 0.00 in 0 W/m2
22:39 40.1 °F 39.8 °F 30.05 in NNE 2.9 mph 3 mph 99% 0.00 in 0 W/m2
22:44 40.1 °F 39.8 °F 30.04 in NNE 2.9 mph 3 mph 99% 0.00 in 0 W/m2
22:49 40.1 °F 39.8 °F 30.04 in NNE 2.9 mph 3 mph 99% 0.00 in 0 W/m2
22:54 40.1 °F 39.8 °F 30.04 in NNE 2.3 mph 4 mph 99% 0.00 in 0 W/m2
22:59 40.1 °F 39.8 °F 30.04 in NNE 2.2 mph 3 mph 99% 0.00 in 0 W/m2
23:04 40.1 °F 39.8 °F 30.04 in NNE 1.5 mph 2 mph 99% 0.00 in 0 W/m2
23:09 40.1 °F 39.8 °F 30.05 in NNE 0.2 mph 2 mph 99% 0.00 in 0 W/m2
23:14 40 °F 39.8 °F 30.05 in North 0.8 mph 0.7 mph 99% 0.00 in 0 W/m2
23:19 39.9 °F 39.7 °F 30.05 in North 2.1 mph 2 mph 99% 0.00 in 0 W/m2
23:24 40 °F 39.8 °F 30.05 in North 2.5 mph 2 mph 99% 0.00 in 0 W/m2
23:29 40.1 °F 39.8 °F 30.05 in NNE 2.5 mph 3 mph 99% 0.00 in 0 W/m2
23:34 40.1 °F 39.8 °F 30.04 in NNE 2.2 mph 3 mph 99% 0.00 in 0 W/m2
23:39 40.1 °F 39.8 °F 30.04 in North 1.9 mph 2 mph 99% 0.00 in 0 W/m2
23:44 40.1 °F 39.8 °F 30.04 in NNE 2.1 mph 2 mph 99% 0.00 in 0 W/m2
23:49 40.1 °F 39.8 °F 30.04 in NNE 2.2 mph 2 mph 99% 0.00 in 0 W/m2
23:54 40.1 °F 39.8 °F 30.04 in NNE 2.2 mph 2 mph 99% 0.00 in 0 W/m2
23:59 40.1 °F 39.8 °F 30.04 in NNE 1.1 mph 3 mph 99% 0.00 in 0 W/m2
Knjazevac, Serbia
Compliments of Weather Underground - 4 mb